Regional Weather Roundup
Issued by NWS

Home | Current Version | Previous Version | Text Only | Print | Product List | Glossary On
Versions: 1 2 3 4 5 6 7 8 9 10 11 12 13 14 15 16 17 18 19 20 21 22 23 24 25 26 27
000
ASUS44 KLIX 191413
RWRLA
LOUISIANA WEATHER ROUNDUP
NATIONAL WEATHER SERVICE NEW ORLEANS LA
800 AM CST THU JAN 19 2017

NOTE: "FAIR" INDICATES FEW OR NO CLOUDS BELOW 12,000 FEET WITH NO
      SIGNIFICANT WEATHER AND/OR OBSTRUCTIONS TO VISIBILITY.
      SKY/WX - SKY CONDITION AND SIGNIFICANT WEATHER.
      TMP - AIR TEMPERATURE.    DP   - DEWPOINT TEMPERATURE.
      RH  - RELATIVE HUMIDITY.  PRES - PRESSURE.
      HX  - HEAT INDEX.         WCI  - WIND CHILL INDEX.

*  THESE STATIONS ARE NOT NWS OR FAA STATIONS AND ARE NOT UNDER
   NWS QUALITY CONTROL.

LAZ040-048-061>063-065-066-069-191500-
SOUTHEAST LOUISIANA

CITY           SKY/WX    TMP DP  RH WIND       PRES   REMARKS
N.O. AUDUBON   NOT AVBL
N.O. INTL ARPT CLOUDY    70  69  97 S8        29.95R
N.O. LAKEFRONT CLOUDY    72  70  93 S12       29.96R
N.O. DOWNTOWN*   N/A     72  69  90 S12       29.96R
RESERVE*       CLOUDY    73  71  92 S9        29.94R
SLIDELL        CLOUDY    70  69  97 S8        29.95R
BATON ROUGE    TSTM      66  65  96 SW10G20   29.93R VSB 3/4
BOOTHVILLE     PTSUNNY   67  67 100 S9        29.98R FOG
BELLE CHASSE   CLOUDY    71  70  96 S14       29.95R FOG
BOGALUSA*      CLOUDY    72  67  86 S10G17    29.95S
GALLIANO*      CLOUDY    71  68  88 S12       29.95S
NEW ROADS*     RAIN      67  64  91 W15G21    29.92S
GONZALES*      CLOUDY    71  68  90 CALM      29.93R
HAMMOND*       CLOUDY    70  66  88 S8        29.94R
HOUMA*         CLOUDY    72  70  94 S12G18    29.95R FOG
PORT FOURCHON* MOSUNNY   70  70 100 S9        29.96S FOG

$$

LAZ041-044-053-054-191500-
SOUTHWEST LOUISIANA

CITY           SKY/WX    TMP DP  RH WIND       PRES   REMARKS
LAKE CHARLES   CLOUDY    66  66 100 S7        29.88S
LAFAYETTE      HVY RAIN  69  66  90 W12       29.91R FOG
PATTERSON      CLOUDY    71  69  93 S16       29.94R
SALT POINT     NOT AVBL
NEW IBERIA     RAIN      68  65  90 W9        29.92R FOG
CHENAULT AIRPK CLOUDY    66  64  94 S12       29.88R

$$

LAZ027-028-191500-
CENTRAL LOUISIANA

CITY           SKY/WX    TMP DP  RH WIND       PRES   REMARKS
FORT POLK      CLOUDY    64  63  94 S5        29.85F
ALEXANDRIA INT LGT RAIN  66  66 100 SW6       29.86R
ALEXANDRIA     LGT RAIN  67  67 100 W5        29.88R

$$

LAZ001-002-191500-
NORTHWEST LOUISIANA

CITY           SKY/WX    TMP DP  RH WIND       PRES   REMARKS
SHREVEPORT     FOG       54  53  97 CALM      29.86R VSB 1/2
BARKSDALE AFB  FOG       53  53 100 CALM      29.88R VSB 3/4
DTN SHREVEPORT FOG       53  52  96 CALM      29.87R VSB 1/2

$$

LAZ014-016-191500-
NORTHEAST LOUISIANA

CITY           SKY/WX    TMP DP  RH WIND       PRES   REMARKS
MONROE         FOG       57  56  96 CALM      29.88S VSB 1
TALLULAH       RAIN      65  64  97 S13       29.89R

$$





USA.gov is the U.S. government's official web portal to all federal, state and local government web resources and services.